Flag for U.S.A. Weather past 2 weeks in Irving, Texas, U.S.A.

65 °F

Mostly cloudy.

Feels Like: 65 °F
Forecast: 59 / 67 °F
Wind: 15 mph from South

Location: Dallas / Fort Worth International Airport

Current Time: Nov 24, 2015 at 6:30:32 PM

Latest Report: Nov 24, 2015 at 5:53 PM

Visibility: 10 mi

Pressure: 30.01 "Hg

Humidity: 61%

Dew point: 51 °F

Location of IrvingLocation

Historic Weather in Irving — Graph


Irving temperature yesterday

Maximum temperature yesterday: 64 °F (at 1:53 PM)
Minimum temperature yesterday: 36 °F (at 6:53 AM)
Average temperature yesterday: 50 °F

Past Weeks' High & Low Weather Summary

High83 °F (Nov 11, 11:53 AM)94% (Nov 16, 11:53 AM)30.36 "Hg (Nov 16, 11:53 AM)
Low31 °F (Nov 22, 6:53 AM)17% (Nov 11, 5:53 PM)29.46 "Hg (Nov 17, 2:53 AM)
Average58 °F59%30.05 "Hg
* Reported Nov 9 4:53 PM — Nov 24 4:53 PM, Irving, Weather by CustomWeather, © 2015

Note: Actual official high and low records may vary slightly from our data, if they occured in-between our weather recording intervals... More about our weather records


Irving weather history for previous 24 hours

Time TempWeatherWind HumidityBarometerVisibility
4:53 PM
Tue, Nov 24
65 °FOvercast.14 mph61%30.01 "Hg10 mi
3:53 PM65 °FOvercast.13 mph59%30.01 "Hg10 mi
2:53 PM64 °FOvercast.16 mph58%30.03 "Hg10 mi
1:53 PM65 °FBroken clouds.17 mph56%30.05 "Hg10 mi
12:53 PM64 °FPartly sunny.17 mph54%30.08 "Hg10 mi
11:53 AM62 °FPartly sunny.15 mph56%30.13 "Hg10 mi
10:53 AM59 °FPartly sunny.13 mph56%30.16 "Hg10 mi
9:53 AM57 °FPassing clouds.12 mph49%30.18 "Hg10 mi
8:53 AM52 °FPassing clouds.10 mph59%30.17 "Hg10 mi
7:53 AM47 °FPassing clouds.7 mph71%30.17 "Hg10 mi
6:53 AM44 °FPassing clouds.7 mph73%30.17 "Hg10 mi
5:53 AM47 °FPassing clouds.9 mph69%30.16 "Hg10 mi
4:53 AM48 °FPartly cloudy.7 mph61%30.17 "Hg10 mi
3:53 AM50 °FPartly cloudy.7 mph54%30.16 "Hg10 mi
2:53 AM51 °FMostly cloudy.8 mph54%30.15 "Hg10 mi
1:53 AM52 °FMostly cloudy.9 mph50%30.16 "Hg10 mi
12:53 AM52 °FMostly cloudy.9 mph50%30.18 "Hg10 mi
11:53 PM
Mon, Nov 23
52 °FHigh level clouds.8 mph50%30.19 "Hg10 mi
10:53 PM51 °FHigh level clouds.6 mph50%30.19 "Hg10 mi
9:53 PM52 °FHigh level clouds.9 mph49%30.19 "Hg10 mi
8:53 PM52 °FHigh level clouds.9 mph50%30.19 "Hg10 mi
7:53 PM50 °FHigh level clouds.8 mph52%30.20 "Hg10 mi
6:53 PM52 °FHigh level clouds.7 mph47%30.20 "Hg10 mi
Weather by CustomWeather, © 2015

See weather overviewHow to use our weather pages